Regional Weather Roundup
Issued by NWS

Home | Current Version | Previous Version | Text Only | Print | Product List | Glossary On
Versions: 1 2 3 4 5 6 7 8 9 10 11 12 13 14 15 16 17 18 19 20 21 22 23 24 25 26 27 28 29 30 31 32 33 34 35 36 37 38 39 40 41 42 43 44 45 46 47 48 49 50
000
ASUS43 KLOT 281921
RWRIL

ILLINOIS REGIONAL WEATHER ROUNDUP
NATIONAL WEATHER SERVICE CHICAGO/ROMEOVILLE IL
200 PM CDT FRI AUG 28 2015

NOTE: "FAIR" INDICATES FEW OR NO CLOUDS BELOW 12,000 FEET WITH NO
SIGNIFICANT WEATHER AND/OR OBSTRUCTIONS TO VISIBILITY.

* THESE STATIONS ARE NOT UNDER NWS QUALITY CONTROL. THEY ALSO MAY NOT
  REPORT WEATHER SUCH AS PRECIPITATION OR FOG.

ILZ001-002-007-009-015-016-024-282000-
NORTHWEST ILLINOIS

CITY           SKY/WX    TMP DP  RH WIND       PRES   REMARKS
MOLINE         CLOUDY    70  62  76 E10       30.06F
STERLING*      CLOUDY   N/A N/A N/A S5        30.07F
SAVANNA*       DRIZZLE   69  61  75 SE3       30.09F
$$

ILZ003-004-008-010-011-017-018-282000-
NORTH CENTRAL ILLINOIS

CITY           SKY/WX    TMP DP  RH WIND       PRES   REMARKS
ROCKFORD       CLOUDY    70  61  73 S7        30.13F
FREEPORT*      CLOUDY    67  62  83 SE5       30.12F
ROCHELLE*      CLOUDY    69  61  76 S6        30.12F
DE KALB*       CLOUDY    69  62  78 S3        30.13F
PERU*          CLOUDY    73  62  70 SE6       30.12S
$$

ILZ005-006-012>014-019>023-282000-
NORTHEAST ILLINOIS

CITY           SKY/WX    TMP DP  RH WIND       PRES   REMARKS
CHICAGO-OHARE  CLOUDY    71  59  65 SW6       30.12F
CHICAGO-MIDWAY CLOUDY    74  59  59 SW7       30.12F
AURORA         CLOUDY    71  62  73 S6        30.13F
LANSING*       CLOUDY    74  61  63 S6        30.13S
JOLIET*        CLOUDY    74  64  71 CALM      30.13S
WAUKEGAN       LGT RAIN  67  60  78 SE6       30.12S
DUPAGE AIRPORT CLOUDY    70  60  70 S5        30.12F
KANKAKEE*      CLOUDY    77  63  62 CALM      30.13F
WHEELING       CLOUDY    72  58  61 SW6       30.13F
MORRIS*        CLOUDY    73  64  73 E5        30.11F
ROMEOVILLE*    CLOUDY    72  60  66 CALM      30.13S
NORTHERLY ISL    N/A     73  57  57 SW7         N/A
$$

LMZ740>746-282000-
SOUTHERN LAKE MICHIGAN

STATION/POSITION SKY/WX   TEMP    WIND        PRES    VSBY  WAVE
                          AIR SEA DIR/SP/G                  HT/PER
                          (F)     (DEG/KT/KT) (MB)    (MI)  (FT/S)
SOUTHERN BUOY              68 69  170/  8/ 10 1020.2F         1/ 4
WILMETTE HARBOR            65 58  330/  2/  4   N/A           1
HARRISON CRIB              71     210/  9/ 12   N/A
BURNHAM HARBOR             73     230/  5/ 10   N/A
BURNS HARBOR               74     220/  7/ 11 1021.0F
MICHIGAN CITY              73     210/  8/  9   N/A
MICHIGAN CITY 6N           73 71  280/  2/  2   N/A           0
ST. JOSEPH                 71 72  360/  4/  4   N/A           1
$$

ILZ025>027-034>036-040-047-049-050-058-095>099-282000-
WEST-CENTRAL ILLINOIS

CITY           SKY/WX    TMP DP  RH WIND       PRES   REMARKS
QUINCY         CLOUDY    72  62  71 S6        30.06F
GALESBURG*     CLOUDY    69  63  80 S3        30.08F
MACOMB*        CLOUDY    71  64  78 SE3       30.09F
JACKSONVILLE*  CLOUDY    78  61  55 SE9G16    30.08S
PITTSFIELD*    CLOUDY    76  61  59 S8        30.08S
$$

ILZ028>032-037-038-041>044-048-051>054-059>061-282000-
CENTRAL ILLINOIS

CITY           SKY/WX    TMP DP  RH WIND       PRES   REMARKS
PONTIAC        CLOUDY    76  64  64 SE7       30.13S
BLOOMINGTON    CLOUDY    77  62  59 SE10      30.12F
DECATUR        LGT RAIN  79  58  48 SE13      30.11F HX  80
PEORIA         CLOUDY    76  59  55 SE8       30.09F
LACON*         CLOUDY    73  62  70 SE5       30.09F
LINCOLN*       PTSUNNY   80  58  45 S9G17     30.09S HX  81
SPRINGFIELD    PTSUNNY   80  59  48 SE14      30.08F HX  81
TAYLORVILLE    MOSUNNY   79  59  50 SE14      30.10F HX  80
$$

ILZ033-039-045-046-055>057-062-063-282000-
EAST-CENTRAL ILLINOIS

CITY           SKY/WX    TMP DP  RH WIND       PRES   REMARKS
CHAMPAIGN      PTSUNNY   79  58  48 SE6       30.13F HX  80
RANTOUL*       PTSUNNY   80  61  52 SE6       30.12F HX  81
MATTOON        MOSUNNY   80  56  43 SE10G16   30.12F HX  80
PARIS*         PTSUNNY   78  61  54 SE7       30.14F HX  80
$$

ILZ079-100>102-282000-
SOUTHWEST ILLINOIS

CITY           SKY/WX    TMP DP  RH WIND       PRES   REMARKS
ALTON          CLOUDY    77  61  57 S8        30.08F
BELLEVILLE     CLOUDY    78  62  57 E7        30.07F HX  80
CAHOKIA*       CLOUDY    79  60  52 SE9       30.07F HX  80
SPARTA*        PTSUNNY   79  62  56 S7        30.09F HX  80
$$

ILZ064>066-069>071-074>076-080>082-084>086-088>090-092>094-282000-
SOUTH-CENTRAL ILLINOIS

CITY           SKY/WX    TMP DP  RH WIND       PRES   REMARKS
CARBONDALE     MOSUNNY   78  60  53 SE6       30.09F
CAIRO*         SUNNY     81  65  58 S6        30.08F HX  82
EFFINGHAM*     SUNNY     80  53  39 SE8       30.13F HX  80
MARION         PTSUNNY   82  61  47 S9        30.10F HX  83
MT. VERNON     MOSUNNY   81  57  44 E7        30.11F HX  81
SALEM*         MOSUNNY   81  56  43 E8        30.11F HX  81
METROPOLIS*    MOSUNNY   83  64  52 E5        30.09F HX  84
$$

ILZ067-068-072-073-078-083-087-091-282000-
SOUTHEAST ILLINOIS

CITY           SKY/WX    TMP DP  RH WIND       PRES   REMARKS
LAWRENCEVILLE  SUNNY     80  58  46 SE9       30.12F HX  80
FLORA*         SUNNY     79  56  44 SE9       30.11F HX  80
FAIRFIELD*     SUNNY     79  60  51 E6        30.10F HX  80
HARRISBURG*    SUNNY     81  59  46 S10       30.09F HX  81
ROBINSON*      SUNNY     80  56  44 SE7       30.13F HX  80
CARMI*         SUNNY     79  60  51 SE7       30.10F HX  80
$$

ABBREVIATIONS USED IN REMARKS
   TC - TEMPERATURE IN CELSIUS
  WCI - WIND CHILL INDEX
   HX - HEAT INDEX
  VSB - VISIBILITY
$$




USA.gov is the U.S. government's official web portal to all federal, state and local government web resources and services.